This is the latest recevied weather packets stored in our database for station/object HB9EKO-12. If no packets are shown the sender has not sent any weather packets the latest 10 day(s).
| Time | Temp. | Humidity | Pressure | Rain* | Wind** | Luminosity | Snow |
|---|---|---|---|---|---|---|---|
| 1777389538 | 21.11° C | 36% | 1015 hPa | - | - | - | - |
| 1777388633 | 21.11° C | 38% | 1015 hPa | - | - | - | - |
| 1777387728 | 20.56° C | 38% | 1015 hPa | - | - | - | - |
| 1777386823 | 21.11° C | 37% | 1015 hPa | - | - | - | - |
| 1777385917 | 21.11° C | 37% | 1015 hPa | - | - | - | - |
| 1777385012 | 20.56° C | 38% | 1015 hPa | - | - | - | - |
| 1777384107 | 20.56° C | 39% | 1015 hPa | - | - | - | - |
| 1777383202 | 21.11° C | 39% | 1016 hPa | - | - | - | - |
| 1777382296 | 20.56° C | 41% | 1016 hPa | - | - | - | - |
| 1777381391 | 20.56° C | 40% | 1016 hPa | - | - | - | - |
| 1777380486 | 20.56° C | 41% | 1016 hPa | - | - | - | - |
| 1777379581 | 21.11° C | 39% | 1016 hPa | - | - | - | - |
| 1777378675 | 21.67° C | 38% | 1016 hPa | - | - | - | - |
| 1777377770 | 21.11° C | 38% | 1016 hPa | - | - | - | - |
| 1777376865 | 21.67° C | 39% | 1016 hPa | - | - | - | - |
| 1777375960 | 21.11° C | 38% | 1016 hPa | - | - | - | - |
| 1777375054 | 21.11° C | 38% | 1016 hPa | - | - | - | - |
| 1777374149 | 21.11° C | 36% | 1016 hPa | - | - | - | - |
| 1777373244 | 20.56° C | 40% | 1016 hPa | - | - | - | - |
| 1777372339 | 20.56° C | 40% | 1016 hPa | - | - | - | - |
| 1777371433 | 20.56° C | 40% | 1016 hPa | - | - | - | - |
| 1777370528 | 19.44° C | 41% | 1016 hPa | - | - | - | - |
| 1777369623 | 18.89° C | 43% | 1017 hPa | - | - | - | - |
| 1777368718 | 18.89° C | 43% | 1017 hPa | - | - | - | - |
| 1777367813 | 17.22° C | 43% | 1017 hPa | - | - | - | - |
* Rain since midnight (hover to see other rain measurements)
** Current wind speed in m/s (hover to see current wind gust speed)